This demonstration page uses our WeatherBlox Daily Observations layout. Learn more.

Left ArrowRight Arrow

Hourly Observations for February 15, 2019

Temp ( °F °C ) Dew Point ( °F °C ) Humidity (%) Winds ( mph kmh ) Pressure ( in mb ) Visibility ( mi km ) Precip ( " mm )
12:53 am 00:53 Cloudy 53 11.7 36 2.2 52 52 SW 10 17 29.65 1004 10 16.0934 N/A
1:53 am 01:53 Cloudy with Light Rain 51 10.6 41 5 69 69 SW 9 15 29.65 1004 9 14.48406 N/A
2:36 am 02:36 Cloudy with Light Rain 50 10 43 6.1 77 77 SW 9 15 29.67 1005 10 16.0934 N/A
2:53 am 02:53 Cloudy with Light Rain 50 10 43 6.1 77 77 SW 7 11 29.66 1005 10 16.0934 N/A
3:44 am 03:44 Cloudy 49 9.4 43 6.1 80 80 W 6 9 29.67 1005 10 16.0934 N/A
3:53 am 03:53 Cloudy 49 9.4 43 6.1 80 80 W 5 7 29.66 1005 10 16.0934 N/A
4:27 am 04:27 Cloudy 50 10 44 6.7 80 80 W 14 22 29.69 1005 10 16.0934 N/A
4:53 am 04:53 Cloudy 47 8.3 39 3.9 74 74 WNW 15 24 29.7 1006 10 16.0934 N/A
5:53 am 05:53 Mostly Clear 42 5.6 35 1.7 76 76 WNW 16 26 29.75 1007 10 16.0934 N/A
6:27 am 06:27 Mostly Cloudy 39 3.9 34 1.1 82 82 WNW 16 26 29.79 1009 10 16.0934 N/A
6:53 am 06:53 Cloudy 38 3.3 33 0.6 83 83 WNW 16 26 29.78 1009 9 14.48406 N/A
7:53 am 07:53 Cloudy 36 2.2 31 -0.6 82 82 WNW 16 26 29.81 1009 7 11.26538 N/A
8:53 am 08:53 Mostly Cloudy 36 2.2 29 -1.7 76 76 WNW 12 19 29.83 1010 7 11.26538 N/A
9:53 am 09:53 Mostly Cloudy 37 2.8 30 -1.1 76 76 W 10 17 29.85 1011 7 11.26538 N/A
10:30 am 10:30 Partly Cloudy 38 3.3 29 -1.7 70 70 WNW 15 24 29.86 1011 8 12.87472 N/A
10:53 am 10:53 Sunny 39 3.9 27 -2.8 62 62 WNW 12 19 29.85 1011 10 16.0934 N/A
11:53 am 11:53 Sunny 37 2.8 23 -5 57 57 WNW 12 19 29.88 1012 10 16.0934 N/A
12:53 pm 12:53 Sunny 37 2.8 20 -6.7 50 50 W 14 22 29.9 1012 10 16.0934 N/A
1:53 pm 13:53 Sunny 36 2.2 21 -6.1 55 55 WNW 14 22 29.91 1013 10 16.0934 N/A
2:53 pm 14:53 Sunny 35 1.7 21 -6.1 57 57 W 12 19 29.93 1014 10 16.0934 N/A
3:53 pm 15:53 Partly Cloudy 34 1.1 21 -6.1 59 59 WNW 10 17 29.94 1014 10 16.0934 N/A
4:53 pm 16:53 Cloudy 33 0.6 20 -6.7 58 58 NW 9 15 29.93 1014 10 16.0934 N/A
5:53 pm 17:53 Cloudy 31 -0.6 16 -8.9 54 54 NW 8 13 29.95 1014 10 16.0934 N/A
6:53 pm 18:53 Cloudy 31 -0.6 17 -8.3 56 56 NW 8 13 29.97 1015 10 16.0934 N/A
7:53 pm 19:53 Mostly Cloudy 30 -1.1 18 -7.8 61 61 NW 6 9 30 1016 10 16.0934 N/A
8:53 pm 20:53 Partly Cloudy 30 -1.1 18 -7.8 61 61 NW 6 9 30 1016 10 16.0934 N/A
9:53 pm 21:53 Mostly Clear 30 -1.1 19 -7.2 64 64 N 6 9 30.01 1016 10 16.0934 N/A
10:53 pm 22:53 Clear 29 -1.7 18 -7.8 63 63 NNW 8 13 30 1016 10 16.0934 N/A
11:53 pm 23:53 Mostly Clear 28 -2.2 18 -7.8 66 66 N 7 11 30.01 1016 10 16.0934 N/A

Powered by AerisWeather